Home   Weather   London   Past weeks
Flag for United Kingdom

Past Weather in London, England, United Kingdom — September 2019

Now
41 °F

Scattered clouds.


Feels Like: 31 °F
Forecast: 46 / 37 °F
Wind: 22 mph from Northeast

Location: Northolt

Current Time: Mar 29, 2020 at 10:09:57 am

Latest Report: Mar 29, 2020 at 8:50 am


Visibility: N/A

Pressure: 30.63 "Hg

Humidity: 49%

Dew Point: 23 °F

Location of LondonLocation

September 2019 Weather in London — Graph

°F

High & Low Weather Summary for September 2019

 TemperatureHumidityPressure
High77 °F (Sep 15, 2:20 pm)100% (Sep 4, 3:50 am)30.60 "Hg (Sep 4, 3:50 am)
Low41 °F (Sep 8, 5:50 am)25% (Sep 14, 3:50 pm)29.30 "Hg (Sep 29, 2:03 pm)
Average61 °F72%30.04 "Hg
* Reported Sep 1 12:50 am — Sep 30 11:50 pm, London. Weather by CustomWeather, © 2020

Note: Actual official high and low records may vary slightly from our data, if they occured in-between our weather recording intervals... More about our weather records

London Weather History for September 1, 2019

Scroll right to see more
 ConditionsComfort  
Time TempWeatherWind HumidityBarometerVisibility
12:50 am
Sun, Sep 1
54 °FPassing clouds.3 mph77%29.95 "HgN/A
1:50 am54 °FOvercast.No wind77%29.95 "HgN/A
2:50 am54 °FPassing clouds.5 mph77%29.98 "HgN/A
3:50 am50 °FPassing clouds.5 mph88%29.98 "HgN/A
4:50 am50 °FOvercast.3 mph88%29.98 "HgN/A
5:50 am50 °FClear.3 mph88%29.98 "Hg10 mi
6:26 am50 °FSunny.3 mph88%29.98 "Hg10 mi
6:50 am50 °FSunny.6 mph88%30.01 "Hg10 mi
7:20 am50 °FSunny.2 mph94%30.01 "Hg10 mi
7:50 am50 °FSunny.2 mph94%30.01 "Hg10 mi
8:20 am54 °FSunny.5 mph88%30.04 "Hg10 mi
8:50 am55 °FSunny.6 mph82%30.04 "Hg10 mi
9:20 am59 °FPassing clouds.7 mph72%30.04 "HgN/A
9:50 am61 °FPassing clouds.6 mph63%30.04 "HgN/A
10:20 am63 °FPassing clouds.10 mph56%30.04 "HgN/A
10:50 am64 °FPassing clouds.9 mph52%30.04 "HgN/A
11:20 am64 °FScattered clouds.13 mph49%30.04 "HgN/A
11:50 am66 °FScattered clouds.9 mph46%30.04 "HgN/A
12:20 pm64 °FScattered clouds.9 mph49%30.04 "HgN/A
12:50 pm66 °FPassing clouds.15 mph43%30.04 "HgN/A
1:50 pm66 °FSunny.10 mph40%30.04 "Hg10 mi
2:20 pm66 °FSunny.10 mph40%30.04 "Hg10 mi
2:50 pm70 °FSunny.12 mph35%30.04 "Hg10 mi
3:20 pm66 °FSunny.15 mph43%30.07 "Hg10 mi
3:50 pm66 °FSunny.18 mph43%30.07 "Hg10 mi
4:20 pm68 °FSunny.14 mph38%30.07 "Hg10 mi
4:50 pm68 °FSunny.13 mph35%30.07 "Hg10 mi
5:50 pm66 °FSunny.14 mph40%30.07 "Hg10 mi
6:20 pm64 °FSunny.12 mph37%30.09 "Hg10 mi
6:50 pm64 °FSunny.14 mph37%30.09 "Hg10 mi
7:20 pm63 °FSunny.10 mph42%30.12 "Hg10 mi
7:50 pm61 °FClear.7 mph45%30.12 "Hg10 mi
8:20 pm59 °FClear.6 mph51%30.12 "Hg10 mi
8:50 pm57 °FClear.7 mph55%30.15 "Hg10 mi
9:50 pm55 °FClear.6 mph59%30.15 "Hg10 mi
10:50 pm52 °FClear.3 mph72%30.18 "HgN/A
11:50 pm48 °FClear.5 mph76%30.18 "HgN/A
Weather by CustomWeather, © 2020

See weather overview

Advertising